カタログに戻る

CZ-2C R/B

運用中LEO
NORAD 58916·ROCKET BODY·🇨🇳 China

打ち上げ Feb 2, 2024 から Xichang Satellite Launch Center

Loading…

次のパス (今後24時間)

TLE

最新Source: Space-Track

元期: Sep 14, 2026, 12:02 UTC

1 58916U 24023M   26257.50180247  .00000221  00000-0  66752-4 0  9994
2 58916  49.8987  54.8010 0094681 249.7395 109.3339 14.71499152140456

AllMySatでCZ-2C R/Bをリアルタイム追跡

Download on the App Store